User: anonymous   Login
Location: Unspecified
(0.0000°N, 0.0000°E)
Time: 05:30:51
(UTC+00:00)
Language:

UNAMSat - Orbit

View from above orbital plane
View from above orbital plane
View from above satellite
View from above satellite

Ground track
Ground track

The orbit data is extracted from the following two-line orbital elements,

1 24305U 96052B   17177.92788427 +.00000011 +00000-0 -39789-5 0  9990
2 24305 082.9361 345.3519 0030512 018.3691 341.8558 13.73784940042853
Epoch (UTC): 26 June 2017 22:16:09
Eccentricity: 0.0030512
inclination: 82.9361°
perigee height: 963 km
apogee height: 1008 km
right ascension of ascending node: 345.3519°
argument of perigee: 18.3691°
revolutions per day: 13.73784940
mean anomaly at epoch: 341.8558°
orbit number at epoch: 4285

The dashed part of the orbit path shows where the satellite is in the earth's shadow,  

DLR